EHI
16 16 16 16 16 16 18 19 18 15 11 9 9 10 8 6 4 4 4 4 3 3 2 1 0 0 1 0 0 0 0 1 2 2 1 0 0 0 0 0 0 0 0
17 18 19 18 17 17 19 20 20 17 14 12 11 10 7 5 5 6 6 5 4 4 3 1 1 1 2 1 0 0 0 0 1 1 0 0 0 0 0 0 0 0 0
18 19 20 20 19 17 17 19 20 18 15 13 12 10 8 6 7 8 7 6 6 5 4 3 2 3 3 2 1 0 0 0 0 0 0 0 0 0 0 0 0 0 0
19 20 22 23 20 17 15 16 17 15 13 11 10 9 8 7 7 7 7 7 6 6 4 3 3 3 2 2 1 0 0 0 0 0 0 0 0 0 0 0 0 0 0
19 21 23 23 20 16 14 14 14 13 11 9 8 9 8 7 7 6 6 6 6 5 3 2 2 1 1 1 0 0 0 0 0 0 0 0 0 0 0 0 0 0 0
17 19 19 19 17 14 13 12 12 11 10 7 7 8 8 6 6 6 6 5 5 3 1 1 1 0 0 0 0 0 0 0 0 0 0 0 0 0 0 0 0 0 0
16 15 15 14 13 12 12 12 12 11 9 7 6 6 6 5 4 4 3 3 2 1 0 0 0 0 0 0 0 0 0 0 0 0 0 0 0 0 0 0 0 0 0
18 16 14 12 10 10 11 13 13 11 10 8 6 6 4 3 3 3 1 1 0 0 0 0 0 0 0 0 0 0 0 0 0 0 0 0 0 0 0 0 0 0 0
21 19 15 11 9 7 9 11 12 13 11 9 7 5 4 3 3 2 1 0 0 0 0 0 0 0 0 0 0 0 0 0 0 0 0 0 0 0 0 0 0 0 0
21 19 14 11 8 7 7 8 11 13 12 9 7 5 4 3 3 2 1 0 0 0 0 0 0 0 0 0 0 0 0 0 0 0 0 0 0 0 0 0 0 0 0
19 16 13 10 8 6 5 6 8 10 10 9 7 5 4 3 2 1 0 0 0 0 0 0 0 0 0 0 0 0 0 0 0 0 0 0 0 0 0 0 0 0 0
16 14 11 9 6 4 3 3 4 5 6 6 6 5 5 3 2 0 0 0 0 0 0 0 0 0 0 0 0 0 0 0 0 0 0 0 0 0 0 0 0 0 0
12 11 8 6 4 2 1 1 2 2 2 2 3 4 4 3 2 1 1 1 0 0 0 0 0 0 0 0 0 0 0 0 0 0 0 0 0 0 0 0 0 0 0
7 7 5 4 3 2 1 1 1 1 0 0 2 3 3 3 3 3 2 2 1 1 0 0 0 0 0 0 0 0 0 0 0 0 0 0 0 0 0 0 0 0 0
4 4 2 2 2 1 0 0 0 0 0 0 1 2 2 2 2 2 2 2 2 2 1 0 0 0 0 0 0 0 0 0 0 0 0 0 0 0 0 0 0 0 0
3 3 3 2 1 1 1 0 0 0 0 0 1 1 1 1 1 1 1 1 2 2 1 1 0 0 0 0 0 0 0 0 0 0 0 0 0 0 0 0 0 0 0
4 4 4 3 2 2 2 1 0 0 0 0 0 0 0 0 0 0 0 0 1 1 2 2 1 0 0 0 0 0 0 0 0 0 0 0 0 0 0 0 0 0 0
6 5 4 3 3 3 2 1 0 0 0 0 0 0 0 0 0 0 0 0 1 1 3 3 2 1 0 0 0 0 0 0 0 0 0 0 0 0 0 0 0 0 0
5 5 4 3 3 3 2 1 0 0 0 0 0 0 0 0 0 0 0 1 2 3 3 3 2 1 0 0 0 0 0 0 0 0 0 0 0 0 0 0 0 0 0
5 4 3 3 3 3 1 0 0 0 0 0 0 0 0 0 0 1 1 1 3 3 3 3 2 1 0 0 0 0 0 0 0 0 0 0 0 0 0 0 0 0 0
5 4 2 3 3 2 1 0 0 0 0 0 0 0 0 0 0 1 2 3 3 3 3 3 2 1 0 0 0 0 0 0 0 0 0 0 0 0 0 0 0 0 0
5 4 3 3 3 2 1 0 0 0 0 0 0 0 0 0 0 1 2 3 3 3 3 3 2 1 0 0 0 0 0 0 0 0 0 0 0 0 0 0 0 0 0
3 3 3 3 3 2 0 0 0 0 0 0 0 0 0 0 0 0 1 3 3 3 3 3 2 1 0 0 0 0 0 0 0 0 0 0 0 0 0 0 0 0 0
1 1 1 2 2 1 0 0 0 0 0 0 0 0 0 0 0 0 1 2 3 3 3 2 1 0 0 0 0 0 0 0 0 0 0 0 0 0 0 0 0 0 0
0 0 0 1 1 1 0 0 0 0 0 0 0 0 0 0 0 0 0 1 2 2 1 1 0 0 0 0 0 0 0 0 0 0 0 0 0 0 0 0 0 0 0
0 0 0 0 0 0 0 0 0 0 0 0 0 0 0 0 0 0 0 0 1 1 0 0 0 0 0 0 0 0 0 0 0 0 0 0 0 0 0 0 0 0 0
Wind_Speed
4 4 3 2 2 2 2 1 1 1 1 1 1 1 2 2 2 2 2 2 2 2 2 2 2 1 1 1 1 1 1 2 2 1 2 2 3 4 4 4 4 4 5
5 4 4 3 3 2 2 1 1 1 1 2 2 2 2 2 2 2 2 2 2 2 2 2 2 2 2 1 1 2 2 2 3 3 2 2 2 3 4 4 3 3 3
5 5 4 3 3 3 2 1 1 2 2 2 2 2 2 2 2 2 2 3 3 2 2 2 2 2 2 2 2 2 2 2 2 4 3 2 2 2 3 3 4 3 3
5 5 4 3 3 3 2 2 2 2 3 2 2 2 2 2 2 2 3 3 3 2 2 2 2 2 2 2 2 3 3 4 4 4 3 2 2 2 2 2 2 2 2
5 5 4 3 3 3 3 3 2 3 3 2 3 3 2 2 2 2 3 3 3 3 3 3 3 4 5 3 3 3 4 3 3 4 3 2 2 2 1 1 2 1 2
5 4 4 4 4 4 3 3 3 3 3 3 3 2 2 2 3 4 4 3 3 3 3 3 4 5 6 7 7 7 6 4 4 3 2 3 2 2 2 2 2 1 0
5 5 4 5 4 4 4 4 3 2 2 3 2 3 3 3 4 5 6 4 3 3 3 3 3 4 5 5 7 8 7 6 4 3 3 2 2 2 3 3 2 1 1
5 5 5 5 5 4 4 4 3 2 2 2 2 2 3 3 4 5 6 5 4 4 3 3 4 3 3 4 5 5 5 4 3 2 2 1 2 2 3 3 2 2 2
6 5 4 5 4 4 4 4 3 3 2 2 2 3 2 2 4 5 5 4 4 4 3 3 3 3 4 5 5 5 4 4 5 6 5 4 4 4 4 4 3 2 1
5 5 4 4 4 4 4 3 3 3 3 3 3 2 2 2 3 4 4 3 4 3 3 3 4 3 4 4 4 4 3 2 2 3 4 5 4 4 4 3 3 2 1
4 5 5 4 4 4 4 3 4 4 4 3 3 2 2 2 3 4 4 3 3 3 2 1 1 3 4 3 3 2 2 2 2 3 3 3 2 2 2 1 1 2 2
6 5 5 4 4 4 4 4 4 4 4 3 2 2 1 1 2 3 4 4 3 3 2 1 1 2 3 3 2 3 4 3 2 2 2 2 1 1 1 1 0 1 1
6 5 4 4 3 4 5 5 4 4 3 3 2 1 1 0 1 2 3 4 4 2 1 2 2 3 3 2 2 3 3 2 2 1 1 0 0 1 1 1 1 1 1
6 5 4 4 3 3 3 3 3 3 3 3 2 2 1 1 1 1 1 1 2 2 1 2 3 3 3 2 2 2 1 1 1 1 0 0 0 1 1 1 1 1 1
6 5 4 3 3 3 2 2 2 2 3 3 3 3 3 2 2 3 3 2 2 2 2 2 2 1 1 1 1 1 1 1 1 1 0 0 0 1 1 0 0 0 0
5 4 3 3 3 3 3 2 2 1 1 2 2 3 2 2 2 4 4 4 4 5 4 2 1 1 2 2 1 1 1 1 1 1 1 1 1 1 1 0 0 1 1
5 5 3 3 3 3 3 3 2 1 2 2 2 3 3 3 3 4 4 4 4 6 3 2 2 2 2 2 2 2 2 1 1 1 2 2 1 1 1 1 1 1 1
4 4 4 4 3 3 3 3 3 3 2 0 1 2 2 3 3 3 4 4 2 3 3 3 3 3 3 3 3 3 2 1 2 2 2 2 2 2 2 2 2 2 2
4 3 3 3 3 3 3 3 3 3 2 1 0 1 2 2 2 2 4 3 3 4 3 3 3 3 3 3 3 3 3 3 3 2 3 3 2 2 2 2 2 3 3
3 5 4 4 4 3 3 3 3 3 3 2 3 2 2 2 2 2 3 3 3 3 3 3 3 3 3 3 3 3 3 3 3 3 3 3 2 3 3 3 3 3 3
3 4 6 4 4 4 4 4 4 4 3 3 3 3 5 3 3 4 3 4 4 4 4 3 3 3 3 3 3 3 4 3 3 3 3 3 3 3 3 3 3 3 3
3 3 3 3 3 3 4 4 4 4 4 4 2 2 5 3 3 3 4 4 4 4 3 4 4 3 3 3 4 4 4 4 3 3 3 3 3 3 3 3 3 3 3
3 3 3 3 3 4 4 3 3 3 3 3 3 2 3 3 3 4 4 4 3 3 4 4 4 3 3 3 3 4 4 4 4 4 4 3 3 3 3 3 4 3 3
3 3 3 3 3 3 3 3 3 3 4 3 3 3 3 3 4 4 4 3 3 3 3 4 4 5 5 3 2 3 3 3 3 4 5 4 4 3 3 4 4 4 4
3 3 3 3 3 3 3 3 3 3 3 3 3 3 4 4 4 4 3 3 4 3 4 3 3 4 5 5 4 4 4 4 4 3 3 4 4 4 4 4 4 4 4
3 3 3 2 3 3 3 3 3 3 3 3 3 3 4 4 4 3 3 3 3 3 4 3 4 4 4 4 4 4 3 3 4 4 4 3 4 4 4 3 4 4 4
Wind_Direction
174 167 162 169 171 166 171 197 195 140 102 116 110 93 86 79 80 93 87 81 79 55 48 67 46 38 58 59 96 108 110 125 141 111 77 69 80 92 85 81 77 75 77
170 162 169 172 163 160 168 192 170 131 115 118 113 99 90 81 79 95 98 89 91 80 66 68 44 53 54 53 90 106 110 117 140 135 113 87 83 100 95 89 80 79 82
160 159 162 166 163 163 167 164 132 120 107 101 104 101 93 90 92 94 104 102 97 89 79 77 61 71 61 59 81 91 98 104 114 128 115 93 90 95 86 77 72 56 74
155 154 158 164 162 155 141 127 120 115 108 106 102 103 101 96 95 102 104 104 96 81 70 70 71 82 87 86 85 90 102 104 109 117 116 108 101 94 95 90 74 47 45
154 158 161 151 139 128 118 112 105 102 103 104 104 97 98 101 106 119 117 110 103 88 67 57 66 77 82 86 96 104 110 112 116 119 121 117 116 121 130 126 107 74 48
148 153 141 134 134 129 125 114 102 94 91 86 88 93 86 83 93 107 114 106 99 92 77 61 67 66 76 77 84 91 101 118 128 129 135 147 161 158 137 140 130 111 81
146 144 143 142 141 140 137 125 122 118 106 95 92 93 87 72 88 104 106 106 96 84 81 76 74 69 73 80 76 75 74 79 100 138 146 166 172 171 157 152 153 143 158
139 139 146 145 145 142 137 143 148 139 134 127 111 102 94 73 88 104 108 99 91 81 79 88 92 79 78 90 88 76 65 58 67 90 132 148 146 156 163 157 147 118 89
147 151 156 145 144 149 150 152 149 140 131 124 116 110 102 74 86 103 110 99 89 76 67 74 88 85 80 95 95 87 70 52 62 74 84 84 86 100 124 123 120 122 117
163 159 147 137 152 163 161 152 137 132 135 124 111 107 107 89 95 111 115 110 101 87 67 58 66 84 88 104 110 108 93 59 62 67 64 60 70 83 99 127 152 146 136
143 137 134 141 149 150 144 138 134 126 116 111 110 93 87 86 103 118 127 123 129 117 99 72 48 76 85 102 119 125 144 126 91 86 77 65 63 68 78 95 151 168 167
135 136 138 140 138 138 138 134 130 127 120 110 110 104 83 79 110 136 137 138 140 134 141 148 123 101 94 99 113 116 114 104 99 92 82 63 53 36 26 31 130 179 220
135 139 135 130 125 134 143 143 138 137 138 144 152 158 167 98 71 119 138 143 147 143 159 157 137 114 101 92 97 111 113 111 114 112 110 83 313 317 345 44 66 75 71
140 145 142 139 131 125 128 143 151 159 162 165 174 185 190 174 178 153 141 144 132 128 118 104 101 93 87 83 81 89 108 138 148 150 153 343 39 59 53 44 53 30 27
145 149 145 145 145 139 135 142 171 192 193 186 193 185 181 204 218 188 173 179 184 172 132 99 88 93 92 67 53 50 67 105 128 131 136 122 129 113 87 36 88 134 163
151 155 157 156 152 150 145 116 69 109 130 166 181 181 205 217 196 182 191 192 181 159 137 143 167 178 190 198 199 198 182 190 192 182 187 195 209 211 196 168 173 195 225
160 160 159 160 161 164 163 163 159 76 79 113 165 188 201 206 194 192 189 179 168 156 158 182 195 204 210 213 213 210 215 215 197 193 199 209 222 229 222 222 221 231 245
156 162 167 169 171 170 171 175 172 170 178 238 247 211 210 208 193 185 170 141 146 175 199 203 209 211 211 213 216 215 218 212 203 214 220 222 217 218 224 228 226 237 246
165 171 168 162 163 164 164 165 167 173 181 189 193 244 217 199 173 169 158 174 196 206 211 217 219 217 218 219 221 218 214 215 215 214 221 223 217 215 229 236 238 238 240
173 170 162 160 161 163 166 172 179 185 185 192 212 219 173 154 168 184 193 209 214 218 216 219 223 223 222 221 219 217 219 222 219 221 226 225 220 221 232 241 242 241 244
164 162 161 162 172 176 178 186 189 192 198 210 223 214 185 192 204 210 211 217 221 222 217 216 217 222 225 219 212 214 218 224 223 222 228 231 227 228 234 240 244 242 247
155 155 164 174 176 180 182 187 189 194 204 214 230 217 198 211 218 220 224 227 226 225 220 213 218 222 223 221 215 210 214 221 222 220 225 228 230 234 237 240 241 241 244
156 160 164 169 172 173 179 186 191 195 202 211 213 207 196 214 223 226 231 231 224 220 214 211 218 225 225 222 219 215 218 224 223 220 223 228 229 234 239 245 246 245 247
162 168 169 167 168 174 183 190 198 203 204 208 212 214 213 216 225 228 230 230 224 221 216 213 218 220 222 220 223 226 230 229 222 218 216 226 233 237 238 246 250 249 250
164 167 171 174 174 179 185 195 204 207 208 207 209 217 222 220 223 226 226 223 220 219 216 211 215 219 223 220 221 227 228 224 226 226 216 219 228 230 233 239 244 248 251
167 171 175 177 180 186 193 201 207 212 216 219 218 221 223 222 222 223 219 214 216 218 216 212 216 218 218 221 225 222 215 217 222 223 220 217 220 227 231 238 245 247 250